Location: Ripley
(48.3812°N, 115.4473°W)
Time: 10:42:42
(UTC+00:00)

CAS-6 - Pass Details

Date: 29 June 2022
Orbit: 613 x 634 km, 97.9° (Epoch: 14 August)

Event Time Altitude Azimuth Distance (km) Brightness Sun altitude
Exits shadow 06:26:25 21° 203° (SSW) 1,422 ? -16.2°
Maximum altitude 06:28:55 41° 262° (W) 922 ? -16.4°
Drops below altitude 10° 06:33:03 10° 333° (NNW) 2,007 ? -16.6°
Sets 06:35:22 0° 341° (NNW) 2,915 ? -16.7°
